Year,Month,Day,Hour,Minute,Value (Times are PST for temperature in C)
2017,04,24,00,00,7.90
2017,04,24,00,01,7.90
2017,04,24,00,02,7.90
2017,04,24,00,03,7.90
2017,04,24,00,04,7.90
2017,04,24,00,05,7.90
2017,04,24,00,06,7.90
2017,04,24,00,07,7.90
2017,04,24,00,08,7.80
2017,04,24,00,09,7.80
2017,04,24,00,10,7.80
2017,04,24,00,11,7.80
2017,04,24,00,12,7.80
2017,04,24,00,13,7.80
2017,04,24,00,14,7.70
2017,04,24,00,15,7.70
2017,04,24,00,16,7.70
2017,04,24,00,17,7.70
2017,04,24,00,18,7.60
2017,04,24,00,19,7.60
2017,04,24,00,20,7.60
2017,04,24,00,21,7.50
2017,04,24,00,22,7.50
2017,04,24,00,23,7.40
2017,04,24,00,24,7.40
2017,04,24,00,25,7.40
2017,04,24,00,26,7.40
2017,04,24,00,27,7.40
2017,04,24,00,28,7.40
2017,04,24,00,29,7.30
2017,04,24,00,30,7.30
2017,04,24,00,31,7.30
2017,04,24,00,32,7.30
2017,04,24,00,33,7.30
2017,04,24,00,34,7.20
2017,04,24,00,35,7.20
2017,04,24,00,36,7.20
2017,04,24,00,37,7.20
2017,04,24,00,38,7.10
2017,04,24,00,39,7.10
2017,04,24,00,40,7.10
2017,04,24,00,41,7.10
2017,04,24,00,42,7.10
2017,04,24,00,43,7.00
2017,04,24,00,44,7.00
2017,04,24,00,45,7.00
2017,04,24,00,46,6.90
2017,04,24,00,47,6.90
2017,04,24,00,48,6.90
2017,04,24,00,49,6.90
2017,04,24,00,50,6.90
2017,04,24,00,51,6.90
2017,04,24,00,52,6.80
2017,04,24,00,53,6.80
2017,04,24,00,54,6.80
2017,04,24,00,55,6.80
2017,04,24,00,56,6.70
2017,04,24,00,57,6.70
2017,04,24,00,58,6.70
2017,04,24,00,59,6.70
2017,04,24,01,00,6.70
2017,04,24,01,01,6.60
2017,04,24,01,02,6.60
2017,04,24,01,03,6.60
2017,04,24,01,04,6.60
2017,04,24,01,05,6.50
2017,04,24,01,06,6.50
2017,04,24,01,07,6.50
2017,04,24,01,08,6.40
2017,04,24,01,09,6.40
2017,04,24,01,10,6.30
2017,04,24,01,11,6.20
2017,04,24,01,12,6.20
2017,04,24,01,13,6.20
2017,04,24,01,14,6.10
2017,04,24,01,15,6.10
2017,04,24,01,16,6.10
2017,04,24,01,17,6.10
2017,04,24,01,18,6.10
2017,04,24,01,19,6.00
2017,04,24,01,20,6.00
2017,04,24,01,21,6.00
2017,04,24,01,22,6.00
2017,04,24,01,23,6.00
2017,04,24,01,24,5.90
2017,04,24,01,25,5.90
2017,04,24,01,26,5.90
2017,04,24,01,27,5.90
2017,04,24,01,28,5.90
2017,04,24,01,29,5.90
2017,04,24,01,30,5.90
2017,04,24,01,31,5.90
2017,04,24,01,32,5.90
2017,04,24,01,33,5.90
2017,04,24,01,34,5.90
2017,04,24,01,35,5.90
2017,04,24,01,36,5.90
2017,04,24,01,37,5.90
2017,04,24,01,38,5.90
2017,04,24,01,39,5.90
2017,04,24,01,40,5.80
2017,04,24,01,41,5.80
2017,04,24,01,42,5.80
2017,04,24,01,43,5.80
2017,04,24,01,44,5.80
2017,04,24,01,45,5.80
2017,04,24,01,46,5.80
2017,04,24,01,47,5.80
2017,04,24,01,48,5.70
2017,04,24,01,49,5.70
2017,04,24,01,50,5.70
2017,04,24,01,51,5.70
2017,04,24,01,52,5.70
2017,04,24,01,53,5.70
2017,04,24,01,54,5.70
2017,04,24,01,55,5.70
2017,04,24,01,56,5.70
2017,04,24,01,57,5.70
2017,04,24,01,58,5.70
2017,04,24,01,59,5.70
2017,04,24,02,00,5.70
2017,04,24,02,01,5.70
2017,04,24,02,02,5.70
2017,04,24,02,03,5.70
2017,04,24,02,04,5.70
2017,04,24,02,05,5.70
2017,04,24,02,06,5.70
2017,04,24,02,07,5.70
2017,04,24,02,08,5.70
2017,04,24,02,09,5.70
2017,04,24,02,10,5.70
2017,04,24,02,11,5.70
2017,04,24,02,12,5.60
2017,04,24,02,13,5.60
2017,04,24,02,14,5.60
2017,04,24,02,15,5.60
2017,04,24,02,16,5.60
2017,04,24,02,17,5.60
2017,04,24,02,18,5.60
2017,04,24,02,19,5.60
2017,04,24,02,20,5.60
2017,04,24,02,21,5.60
2017,04,24,02,22,5.50
2017,04,24,02,23,5.50
2017,04,24,02,24,5.50
2017,04,24,02,25,5.50
2017,04,24,02,26,5.50
2017,04,24,02,27,5.40
2017,04,24,02,28,5.40
2017,04,24,02,29,5.40
2017,04,24,02,30,5.40
2017,04,24,02,31,5.40
2017,04,24,02,32,5.30
2017,04,24,02,33,5.30
2017,04,24,02,34,5.30
2017,04,24,02,35,5.20
2017,04,24,02,36,5.20
2017,04,24,02,37,5.20
2017,04,24,02,38,5.20
2017,04,24,02,39,5.20
2017,04,24,02,40,5.20
2017,04,24,02,41,5.10
2017,04,24,02,42,5.10
2017,04,24,02,43,5.10
2017,04,24,02,44,5.10
2017,04,24,02,45,5.10
2017,04,24,02,46,5.10
2017,04,24,02,47,5.10
2017,04,24,02,48,5.10
2017,04,24,02,49,5.10
2017,04,24,02,50,5.00
2017,04,24,02,51,5.00
2017,04,24,02,52,5.00
2017,04,24,02,53,5.00
2017,04,24,02,54,4.90
2017,04,24,02,55,4.90
2017,04,24,02,56,4.80
2017,04,24,02,57,4.80
2017,04,24,02,58,4.70
2017,04,24,02,59,4.70
2017,04,24,03,00,4.70
2017,04,24,03,01,4.70
2017,04,24,03,02,4.70
2017,04,24,03,03,4.70
2017,04,24,03,04,4.70
2017,04,24,03,05,4.70
2017,04,24,03,06,4.70
2017,04,24,03,07,4.70
2017,04,24,03,08,4.70
2017,04,24,03,09,4.70
2017,04,24,03,10,4.60
2017,04,24,03,11,4.60
2017,04,24,03,12,4.60
2017,04,24,03,13,4.60
2017,04,24,03,14,4.60
2017,04,24,03,15,4.50
2017,04,24,03,16,4.50
2017,04,24,03,17,4.50
2017,04,24,03,18,4.50
2017,04,24,03,19,4.40
2017,04,24,03,20,4.40
2017,04,24,03,21,4.40
2017,04,24,03,22,4.40
2017,04,24,03,23,4.40
2017,04,24,03,24,4.40
2017,04,24,03,25,4.40
2017,04,24,03,26,4.30
2017,04,24,03,27,4.30
2017,04,24,03,28,4.30
2017,04,24,03,29,4.20
2017,04,24,03,30,4.20
2017,04,24,03,31,4.20
2017,04,24,03,32,4.20
2017,04,24,03,33,4.20
2017,04,24,03,34,4.20
2017,04,24,03,35,4.10
2017,04,24,03,36,4.10
2017,04,24,03,37,4.10
2017,04,24,03,38,4.10
2017,04,24,03,39,4.10
2017,04,24,03,40,4.10
2017,04,24,03,41,4.10
2017,04,24,03,42,4.00
2017,04,24,03,43,4.00
2017,04,24,03,44,4.00
2017,04,24,03,45,4.00
2017,04,24,03,46,4.00
2017,04,24,03,47,4.00
2017,04,24,03,48,4.00
2017,04,24,03,49,3.90
2017,04,24,03,50,3.90
2017,04,24,03,51,3.90
2017,04,24,03,52,3.90
2017,04,24,03,53,3.90
2017,04,24,03,54,3.90
2017,04,24,03,55,3.90
2017,04,24,03,56,3.90
2017,04,24,03,57,3.90
2017,04,24,03,58,3.90
2017,04,24,03,59,3.90
2017,04,24,04,00,3.90
2017,04,24,04,01,3.90
2017,04,24,04,02,3.90
2017,04,24,04,03,3.90
2017,04,24,04,04,3.90
2017,04,24,04,05,3.90
2017,04,24,04,06,3.90
2017,04,24,04,07,3.90
2017,04,24,04,08,3.90
2017,04,24,04,09,3.80
2017,04,24,04,10,3.80
2017,04,24,04,11,3.80
2017,04,24,04,12,3.80
2017,04,24,04,13,3.80
2017,04,24,04,14,3.80
2017,04,24,04,15,3.80
2017,04,24,04,16,3.80
2017,04,24,04,17,3.80
2017,04,24,04,18,3.70
2017,04,24,04,19,3.70
2017,04,24,04,20,3.70
2017,04,24,04,21,3.70
2017,04,24,04,22,3.70
2017,04,24,04,23,3.70
2017,04,24,04,24,3.70
2017,04,24,04,25,3.70
2017,04,24,04,26,3.70
2017,04,24,04,27,3.70
2017,04,24,04,28,3.70
2017,04,24,04,29,3.70
2017,04,24,04,30,3.60
2017,04,24,04,31,3.60
2017,04,24,04,32,3.60
2017,04,24,04,33,3.60
2017,04,24,04,34,3.60
2017,04,24,04,35,3.60
2017,04,24,04,36,3.60
2017,04,24,04,37,3.60
2017,04,24,04,38,3.60
2017,04,24,04,39,3.60
2017,04,24,04,40,3.60
2017,04,24,04,41,3.60
2017,04,24,04,42,3.60
2017,04,24,04,43,3.60
2017,04,24,04,44,3.50
2017,04,24,04,45,3.50
2017,04,24,04,46,3.50
2017,04,24,04,47,3.50
2017,04,24,04,48,3.50
2017,04,24,04,49,3.40
2017,04,24,04,50,3.40
2017,04,24,04,51,3.40
2017,04,24,04,52,3.40
2017,04,24,04,53,3.40
2017,04,24,04,54,3.40
2017,04,24,04,55,3.30
2017,04,24,04,56,3.30
2017,04,24,04,57,3.30
2017,04,24,04,58,3.30
2017,04,24,04,59,3.20
2017,04,24,05,00,3.20
2017,04,24,05,01,3.20
2017,04,24,05,02,3.20
2017,04,24,05,03,3.20
2017,04,24,05,04,3.20
2017,04,24,05,05,3.20
2017,04,24,05,06,3.20
2017,04,24,05,07,3.20
2017,04,24,05,08,3.10
2017,04,24,05,09,3.10
2017,04,24,05,10,3.10
2017,04,24,05,11,3.10
2017,04,24,05,12,3.10
2017,04,24,05,13,3.10
2017,04,24,05,14,3.10
2017,04,24,05,15,3.00
2017,04,24,05,16,3.00
2017,04,24,05,17,3.00
2017,04,24,05,18,3.00
2017,04,24,05,19,3.00
2017,04,24,05,20,3.00
2017,04,24,05,21,3.00
2017,04,24,05,22,3.00
2017,04,24,05,23,3.00
2017,04,24,05,24,3.00
2017,04,24,05,25,3.00
2017,04,24,05,26,3.00
2017,04,24,05,27,3.00
2017,04,24,05,28,3.00
2017,04,24,05,29,2.90
2017,04,24,05,30,2.90
2017,04,24,05,31,2.90
2017,04,24,05,32,2.90
2017,04,24,05,33,2.90
2017,04,24,05,34,2.90
2017,04,24,05,35,2.90
2017,04,24,05,36,2.90
2017,04,24,05,37,2.90
2017,04,24,05,38,2.90
2017,04,24,05,39,2.90
2017,04,24,05,40,2.90
2017,04,24,05,41,2.90
2017,04,24,05,42,2.90
2017,04,24,05,43,2.90
2017,04,24,05,44,2.90
2017,04,24,05,45,2.90
2017,04,24,05,46,3.00
2017,04,24,05,47,3.00
2017,04,24,05,48,3.00
2017,04,24,05,49,3.00
2017,04,24,05,50,3.00
2017,04,24,05,51,3.00
2017,04,24,05,52,3.00
2017,04,24,05,53,3.00
2017,04,24,05,54,3.00
2017,04,24,05,55,3.00
2017,04,24,05,56,3.00
2017,04,24,05,57,3.00
2017,04,24,05,58,3.00
2017,04,24,05,59,3.00
2017,04,24,06,00,3.00
2017,04,24,06,01,3.00
2017,04,24,06,02,3.00
2017,04,24,06,03,2.90
2017,04,24,06,04,2.90
2017,04,24,06,05,2.90
2017,04,24,06,06,2.90
2017,04,24,06,07,2.90
2017,04,24,06,08,2.90
2017,04,24,06,09,2.90
2017,04,24,06,10,2.90
2017,04,24,06,11,2.90
2017,04,24,06,12,2.90
2017,04,24,06,13,2.80
2017,04,24,06,14,2.80
2017,04,24,06,15,2.80
2017,04,24,06,16,2.80
2017,04,24,06,17,2.80
2017,04,24,06,18,2.70
2017,04,24,06,19,2.70
2017,04,24,06,20,2.70
2017,04,24,06,21,2.70
2017,04,24,06,22,2.60
2017,04,24,06,23,2.60
2017,04,24,06,24,2.60
2017,04,24,06,25,2.60
2017,04,24,06,26,2.60
2017,04,24,06,27,2.60
2017,04,24,06,28,2.60
2017,04,24,06,29,2.60
2017,04,24,06,30,2.60
2017,04,24,06,31,2.70
2017,04,24,06,32,2.70
2017,04,24,06,33,2.70
2017,04,24,06,34,2.70
2017,04,24,06,35,2.70
2017,04,24,06,36,2.70
2017,04,24,06,37,2.70
2017,04,24,06,38,2.70
2017,04,24,06,39,2.70
2017,04,24,06,40,2.70
2017,04,24,06,41,2.70
2017,04,24,06,42,2.70
2017,04,24,06,43,2.70
2017,04,24,06,44,2.70
2017,04,24,06,45,2.70
2017,04,24,06,46,2.70
2017,04,24,06,47,2.70
2017,04,24,06,48,2.70
2017,04,24,06,49,2.70
2017,04,24,06,50,2.80
2017,04,24,06,51,2.80
2017,04,24,06,52,2.80
2017,04,24,06,53,2.80
2017,04,24,06,54,2.80
2017,04,24,06,55,2.90
2017,04,24,06,56,2.90
2017,04,24,06,57,3.00
2017,04,24,06,58,3.00
2017,04,24,06,59,3.10
2017,04,24,07,00,3.10
2017,04,24,07,01,3.10
2017,04,24,07,02,3.10
2017,04,24,07,03,3.10
2017,04,24,07,04,3.10
2017,04,24,07,05,3.10
2017,04,24,07,06,3.10
2017,04,24,07,07,3.10
2017,04,24,07,08,3.20
2017,04,24,07,09,3.20
2017,04,24,07,10,3.20
2017,04,24,07,11,3.20
2017,04,24,07,12,3.20
2017,04,24,07,13,3.20
2017,04,24,07,14,3.20
2017,04,24,07,15,3.30
2017,04,24,07,16,3.30
2017,04,24,07,17,3.30
2017,04,24,07,18,3.30
2017,04,24,07,19,3.40
2017,04,24,07,20,3.40
2017,04,24,07,21,3.40
2017,04,24,07,22,3.40
2017,04,24,07,23,3.50
2017,04,24,07,24,3.50
2017,04,24,07,25,3.50
2017,04,24,07,26,3.50
2017,04,24,07,27,3.60
2017,04,24,07,28,3.60
2017,04,24,07,29,3.60
2017,04,24,07,30,3.60
2017,04,24,07,31,3.70
2017,04,24,07,32,3.70
2017,04,24,07,33,3.70
2017,04,24,07,34,3.70
2017,04,24,07,35,3.80
2017,04,24,07,36,3.80
2017,04,24,07,37,3.80
2017,04,24,07,38,3.90
2017,04,24,07,39,3.90
2017,04,24,07,40,4.00
2017,04,24,07,41,4.00
2017,04,24,07,42,4.00
2017,04,24,07,43,4.10
2017,04,24,07,44,4.10
2017,04,24,07,45,4.10
2017,04,24,07,46,4.10
2017,04,24,07,47,4.20
2017,04,24,07,48,4.20
2017,04,24,07,49,4.20
2017,04,24,07,50,4.20
2017,04,24,07,51,4.30
2017,04,24,07,52,4.30
2017,04,24,07,53,4.30
2017,04,24,07,54,4.30
2017,04,24,07,55,4.30
2017,04,24,07,56,4.40
2017,04,24,07,57,4.40
2017,04,24,07,58,4.50
2017,04,24,07,59,4.50
2017,04,24,08,00,4.50
2017,04,24,08,01,4.60
2017,04,24,08,02,4.60
2017,04,24,08,03,4.60
2017,04,24,08,04,4.60
2017,04,24,08,05,4.70
2017,04,24,08,06,4.70
2017,04,24,08,07,4.80
2017,04,24,08,08,4.80
2017,04,24,08,09,4.80
2017,04,24,08,10,4.80
2017,04,24,08,11,4.90
2017,04,24,08,12,4.90
2017,04,24,08,13,4.90
2017,04,24,08,14,5.00
2017,04,24,08,15,5.00
2017,04,24,08,16,5.10
2017,04,24,08,17,5.10
2017,04,24,08,18,5.20
2017,04,24,08,19,5.20
2017,04,24,08,20,5.20
2017,04,24,08,21,5.20
2017,04,24,08,22,5.30
2017,04,24,08,23,5.30
2017,04,24,08,24,5.30
2017,04,24,08,25,5.30
2017,04,24,08,26,5.30
2017,04,24,08,27,5.40
2017,04,24,08,28,5.40
2017,04,24,08,29,5.40
2017,04,24,08,30,5.40
2017,04,24,08,31,5.40
2017,04,24,08,32,5.50
2017,04,24,08,33,5.50
2017,04,24,08,34,5.50
2017,04,24,08,35,5.60
2017,04,24,08,36,5.60
2017,04,24,08,37,5.70
2017,04,24,08,38,5.70
2017,04,24,08,39,5.70
2017,04,24,08,40,5.70
2017,04,24,08,41,5.80
2017,04,24,08,42,5.80
2017,04,24,08,43,5.80
2017,04,24,08,44,5.80
2017,04,24,08,45,5.80
2017,04,24,08,46,5.90
2017,04,24,08,47,6.00
2017,04,24,08,48,6.00
2017,04,24,08,49,6.10
2017,04,24,08,50,6.10
2017,04,24,08,51,6.10
2017,04,24,08,52,6.20
2017,04,24,08,53,6.20
2017,04,24,08,54,6.20
2017,04,24,08,55,6.20
2017,04,24,08,56,6.20
2017,04,24,08,57,6.30
2017,04,24,08,58,6.30
2017,04,24,08,59,6.30
2017,04,24,09,00,6.30
2017,04,24,09,01,6.40
2017,04,24,09,02,6.40
2017,04,24,09,03,6.50
2017,04,24,09,04,6.50
2017,04,24,09,05,6.60
2017,04,24,09,06,6.70
2017,04,24,09,07,6.70
2017,04,24,09,08,6.70
2017,04,24,09,09,6.80
2017,04,24,09,10,6.80
2017,04,24,09,11,6.90
2017,04,24,09,12,7.00
2017,04,24,09,13,7.00
2017,04,24,09,14,7.10
2017,04,24,09,15,7.20
2017,04,24,09,16,7.20
2017,04,24,09,17,7.30
2017,04,24,09,18,7.30
2017,04,24,09,19,7.40
2017,04,24,09,20,7.40
2017,04,24,09,21,7.50
2017,04,24,09,22,7.50
2017,04,24,09,23,7.50
2017,04,24,09,24,7.60
2017,04,24,09,25,7.60
2017,04,24,09,26,7.70
2017,04,24,09,27,7.70
2017,04,24,09,28,7.70
2017,04,24,09,29,7.70
2017,04,24,09,30,7.80
2017,04,24,09,31,7.80
2017,04,24,09,32,7.80
2017,04,24,09,33,7.80
2017,04,24,09,34,7.80
2017,04,24,09,35,7.90
2017,04,24,09,36,7.90
2017,04,24,09,37,7.90
2017,04,24,09,38,7.90
2017,04,24,09,39,7.90
2017,04,24,09,40,8.00
2017,04,24,09,41,8.10
2017,04,24,09,42,8.10
2017,04,24,09,43,8.20
2017,04,24,09,44,8.20
2017,04,24,09,45,8.20
2017,04,24,09,46,8.20
2017,04,24,09,47,8.20
2017,04,24,09,48,8.30
2017,04,24,09,49,8.30
2017,04,24,09,50,8.30
2017,04,24,09,51,8.30
2017,04,24,09,52,8.40
2017,04,24,09,53,8.40
2017,04,24,09,54,8.40
2017,04,24,09,55,8.40
2017,04,24,09,56,8.50
2017,04,24,09,57,8.50
2017,04,24,09,58,8.60
2017,04,24,09,59,8.60
2017,04,24,10,00,8.60
2017,04,24,10,01,8.60
2017,04,24,10,02,8.60
2017,04,24,10,03,8.60
2017,04,24,10,04,8.60
2017,04,24,10,05,8.60
2017,04,24,10,06,8.70
2017,04,24,10,07,8.70
2017,04,24,10,08,8.70
2017,04,24,10,09,8.70
2017,04,24,10,10,8.70
2017,04,24,10,11,8.70
2017,04,24,10,12,8.70
2017,04,24,10,13,8.70
2017,04,24,10,14,8.70
2017,04,24,10,15,8.80
2017,04,24,10,16,8.80
2017,04,24,10,17,8.80
2017,04,24,10,18,8.90
2017,04,24,10,19,8.90
2017,04,24,10,20,8.90
2017,04,24,10,21,9.00
2017,04,24,10,22,9.00
2017,04,24,10,23,9.00
2017,04,24,10,24,9.10
2017,04,24,10,25,9.20
2017,04,24,10,26,9.20
2017,04,24,10,27,9.20
2017,04,24,10,28,9.30
2017,04,24,10,29,9.30
2017,04,24,10,30,9.40
2017,04,24,10,31,9.40
2017,04,24,10,32,9.50
2017,04,24,10,33,9.50
2017,04,24,10,34,9.60
2017,04,24,10,35,9.60
2017,04,24,10,36,9.70
2017,04,24,10,37,9.70
2017,04,24,10,38,9.70
2017,04,24,10,39,9.80
2017,04,24,10,40,9.80
2017,04,24,10,41,9.80
2017,04,24,10,42,9.80
2017,04,24,10,43,9.90
2017,04,24,10,44,9.90
2017,04,24,10,45,9.90
2017,04,24,10,46,10.00
2017,04,24,10,47,10.00
2017,04,24,10,48,10.10
2017,04,24,10,49,10.10
2017,04,24,10,50,10.20
2017,04,24,10,51,10.30
2017,04,24,10,52,10.30
2017,04,24,10,53,10.40
2017,04,24,10,54,10.40
2017,04,24,10,55,10.40
2017,04,24,10,56,10.30
2017,04,24,10,57,10.30
2017,04,24,10,58,10.20
2017,04,24,10,59,10.10
2017,04,24,11,00,10.00
2017,04,24,11,01,9.90
2017,04,24,11,02,9.90
2017,04,24,11,03,9.90
2017,04,24,11,04,9.90
2017,04,24,11,05,10.00
2017,04,24,11,06,10.10
2017,04,24,11,07,10.20
2017,04,24,11,08,10.30
2017,04,24,11,09,10.40
2017,04,24,11,10,10.50
2017,04,24,11,11,10.60
2017,04,24,11,12,10.70
2017,04,24,11,13,10.80
2017,04,24,11,14,10.80
2017,04,24,11,15,10.80
2017,04,24,11,16,10.80
2017,04,24,11,17,10.80
2017,04,24,11,18,10.80
2017,04,24,11,19,10.80
2017,04,24,11,20,10.80
2017,04,24,11,21,10.70
2017,04,24,11,22,10.70
2017,04,24,11,23,10.80
2017,04,24,11,24,10.80
2017,04,24,11,25,10.90
2017,04,24,11,26,11.00
2017,04,24,11,27,11.10
2017,04,24,11,28,11.30
2017,04,24,11,29,11.40
2017,04,24,11,30,11.40
2017,04,24,11,31,11.40
2017,04,24,11,32,11.30
2017,04,24,11,33,11.30
2017,04,24,11,34,11.30
2017,04,24,11,35,11.30
2017,04,24,11,36,11.40
2017,04,24,11,37,11.50
2017,04,24,11,38,11.60
2017,04,24,11,39,11.70
2017,04,24,11,40,11.70
2017,04,24,11,41,11.70
2017,04,24,11,42,11.70
2017,04,24,11,43,11.70
2017,04,24,11,44,11.70
2017,04,24,11,45,11.80
2017,04,24,11,46,11.80
2017,04,24,11,47,11.80
2017,04,24,11,48,11.70
2017,04,24,11,49,11.70
2017,04,24,11,50,11.70
2017,04,24,11,51,11.70
2017,04,24,11,52,11.70
2017,04,24,11,53,11.70
2017,04,24,11,54,11.80
2017,04,24,11,55,11.80
2017,04,24,11,56,11.80
2017,04,24,11,57,11.80
2017,04,24,11,58,11.80
2017,04,24,11,59,11.80
2017,04,24,12,00,11.80
2017,04,24,12,01,11.80
2017,04,24,12,02,11.90
2017,04,24,12,03,11.90
2017,04,24,12,04,11.90
2017,04,24,12,05,11.90
2017,04,24,12,06,11.90
2017,04,24,12,07,11.90
2017,04,24,12,08,11.80
2017,04,24,12,09,11.80
2017,04,24,12,10,11.80
2017,04,24,12,11,11.70
2017,04,24,12,12,11.70
2017,04,24,12,13,11.70
2017,04,24,12,14,11.70
2017,04,24,12,15,11.70
2017,04,24,12,16,11.70
2017,04,24,12,17,11.70
2017,04,24,12,18,11.70
2017,04,24,12,19,11.70
2017,04,24,12,20,11.70
2017,04,24,12,21,11.70
2017,04,24,12,22,11.80
2017,04,24,12,23,11.80
2017,04,24,12,24,11.90
2017,04,24,12,25,11.90
2017,04,24,12,26,12.00
2017,04,24,12,27,12.00
2017,04,24,12,28,11.90
2017,04,24,12,29,11.90
2017,04,24,12,30,11.90
2017,04,24,12,31,11.80
2017,04,24,12,32,11.80
2017,04,24,12,33,11.80
2017,04,24,12,34,11.80
2017,04,24,12,35,11.80
2017,04,24,12,36,11.80
2017,04,24,12,37,11.80
2017,04,24,12,38,11.90
2017,04,24,12,39,11.90
2017,04,24,12,40,12.00
2017,04,24,12,41,12.00
2017,04,24,12,42,11.90
2017,04,24,12,43,11.90
2017,04,24,12,44,11.90
2017,04,24,12,45,11.90
2017,04,24,12,46,12.00
2017,04,24,12,47,12.00
2017,04,24,12,48,12.00
2017,04,24,12,49,12.10
2017,04,24,12,50,12.10
2017,04,24,12,51,12.10
2017,04,24,12,52,12.20
2017,04,24,12,53,12.30
2017,04,24,12,54,12.30
2017,04,24,12,55,12.30
2017,04,24,12,56,12.30
2017,04,24,12,57,12.30
2017,04,24,12,58,12.40
2017,04,24,12,59,12.50
2017,04,24,13,00,12.50
2017,04,24,13,01,12.60
2017,04,24,13,02,12.60
2017,04,24,13,03,12.70
2017,04,24,13,04,12.80
2017,04,24,13,05,12.90
2017,04,24,13,06,12.90
2017,04,24,13,07,13.00
2017,04,24,13,08,13.00
2017,04,24,13,09,13.00
2017,04,24,13,10,13.00
2017,04,24,13,11,13.00
2017,04,24,13,12,13.00
2017,04,24,13,13,12.90
2017,04,24,13,14,12.80
2017,04,24,13,15,12.80
2017,04,24,13,16,12.70
2017,04,24,13,17,12.60
2017,04,24,13,18,12.60
2017,04,24,13,19,12.60
2017,04,24,13,20,12.60
2017,04,24,13,21,12.60
2017,04,24,13,22,12.60
2017,04,24,13,23,12.60
2017,04,24,13,24,12.60
2017,04,24,13,25,12.60
2017,04,24,13,26,12.60
2017,04,24,13,27,12.70
2017,04,24,13,28,12.70
2017,04,24,13,29,12.70
2017,04,24,13,30,12.80
2017,04,24,13,31,12.90
2017,04,24,13,32,12.90
2017,04,24,13,33,13.00
2017,04,24,13,34,13.00
2017,04,24,13,35,13.10
2017,04,24,13,36,13.10
2017,04,24,13,37,13.10
2017,04,24,13,38,13.10
2017,04,24,13,39,13.10
2017,04,24,13,40,13.10
2017,04,24,13,41,13.10
2017,04,24,13,42,13.00
2017,04,24,13,43,13.00
2017,04,24,13,44,13.00
2017,04,24,13,45,12.90
2017,04,24,13,46,12.90
2017,04,24,13,47,12.90
2017,04,24,13,48,12.90
2017,04,24,13,49,13.00
2017,04,24,13,50,13.00
2017,04,24,13,51,13.00
2017,04,24,13,52,12.90
2017,04,24,13,53,12.90
2017,04,24,13,54,12.90
2017,04,24,13,55,12.90
2017,04,24,13,56,12.90
2017,04,24,13,57,12.90
2017,04,24,13,58,13.00
2017,04,24,13,59,13.00
2017,04,24,14,00,13.00
2017,04,24,14,01,13.00
2017,04,24,14,02,13.00
2017,04,24,14,03,13.10
2017,04,24,14,04,13.20
2017,04,24,14,05,13.20
2017,04,24,14,06,13.20
2017,04,24,14,07,13.30
2017,04,24,14,08,13.40
2017,04,24,14,09,13.40
2017,04,24,14,10,13.50
2017,04,24,14,11,13.60
2017,04,24,14,12,13.60
2017,04,24,14,13,13.80
2017,04,24,14,14,13.80
2017,04,24,14,15,13.80
2017,04,24,14,16,13.90
2017,04,24,14,17,14.00
2017,04,24,14,18,14.00
2017,04,24,14,19,14.00
2017,04,24,14,20,14.00
2017,04,24,14,21,14.10
2017,04,24,14,22,14.10
2017,04,24,14,23,14.10
2017,04,24,14,24,14.10
2017,04,24,14,25,14.10
2017,04,24,14,26,14.10
2017,04,24,14,27,14.10
2017,04,24,14,28,14.30
2017,04,24,14,29,14.40
2017,04,24,14,30,14.50
2017,04,24,14,31,14.50
2017,04,24,14,32,14.60
2017,04,24,14,33,14.50
2017,04,24,14,34,14.50
2017,04,24,14,35,14.50
2017,04,24,14,36,14.50
2017,04,24,14,37,14.60
2017,04,24,14,38,14.60
2017,04,24,14,39,14.60
2017,04,24,14,40,14.60
2017,04,24,14,41,14.60
2017,04,24,14,42,14.50
2017,04,24,14,43,14.50
2017,04,24,14,44,14.50
2017,04,24,14,45,14.60
2017,04,24,14,46,14.50
2017,04,24,14,47,14.50
2017,04,24,14,48,14.40
2017,04,24,14,49,14.40
2017,04,24,14,50,14.40
2017,04,24,14,51,14.40
2017,04,24,14,52,14.50
2017,04,24,14,53,14.50
2017,04,24,14,54,14.60
2017,04,24,14,55,14.80
2017,04,24,14,56,14.80
2017,04,24,14,57,14.90
2017,04,24,14,58,14.90
2017,04,24,14,59,14.90
2017,04,24,15,00,14.90
2017,04,24,15,01,14.90
2017,04,24,15,02,14.90
2017,04,24,15,03,14.90
2017,04,24,15,04,15.00
2017,04,24,15,05,15.00
2017,04,24,15,06,15.00
2017,04,24,15,07,15.10
2017,04,24,15,08,15.10
2017,04,24,15,09,15.20
2017,04,24,15,10,15.10
2017,04,24,15,11,15.00
2017,04,24,15,12,14.90
2017,04,24,15,13,14.80
2017,04,24,15,14,14.70
2017,04,24,15,15,14.70
2017,04,24,15,16,14.80
2017,04,24,15,17,14.90
2017,04,24,15,18,14.90
2017,04,24,15,19,14.90
2017,04,24,15,20,14.90
2017,04,24,15,21,14.90
2017,04,24,15,22,14.90
2017,04,24,15,23,14.90
2017,04,24,15,24,14.90
2017,04,24,15,25,14.90
2017,04,24,15,26,15.00
2017,04,24,15,27,14.90
2017,04,24,15,28,14.90
2017,04,24,15,29,14.90
2017,04,24,15,30,14.90
2017,04,24,15,31,14.90
2017,04,24,15,32,14.90
2017,04,24,15,33,14.90
2017,04,24,15,34,15.00
2017,04,24,15,35,14.90
2017,04,24,15,36,14.90
2017,04,24,15,37,14.90
2017,04,24,15,38,15.00
2017,04,24,15,39,15.00
2017,04,24,15,40,15.00
2017,04,24,15,41,14.90
2017,04,24,15,42,14.90
2017,04,24,15,43,14.90
2017,04,24,15,44,14.90
2017,04,24,15,45,14.90
2017,04,24,15,46,14.90
2017,04,24,15,47,14.90
2017,04,24,15,48,15.00
2017,04,24,15,49,15.00
2017,04,24,15,50,15.00
2017,04,24,15,51,15.00
2017,04,24,15,52,15.10
2017,04,24,15,53,15.20
2017,04,24,15,54,15.30
2017,04,24,15,55,15.40
2017,04,24,15,56,15.40
2017,04,24,15,57,15.40
2017,04,24,15,58,15.40
2017,04,24,15,59,15.50
2017,04,24,16,00,15.40
2017,04,24,16,01,15.30
2017,04,24,16,02,15.30
2017,04,24,16,03,15.40
2017,04,24,16,04,15.40
2017,04,24,16,05,15.40
2017,04,24,16,06,15.40
2017,04,24,16,07,15.40
2017,04,24,16,08,15.50
2017,04,24,16,09,15.50
2017,04,24,16,10,15.50
2017,04,24,16,11,15.60
2017,04,24,16,12,15.70
2017,04,24,16,13,15.80
2017,04,24,16,14,15.80
2017,04,24,16,15,15.90
2017,04,24,16,16,15.80
2017,04,24,16,17,15.80
2017,04,24,16,18,15.80
2017,04,24,16,19,15.90
2017,04,24,16,20,16.00
2017,04,24,16,21,16.10
2017,04,24,16,22,16.10
2017,04,24,16,23,16.20
2017,04,24,16,24,16.10
2017,04,24,16,25,16.10
2017,04,24,16,26,16.10
2017,04,24,16,27,16.10
2017,04,24,16,28,16.20
2017,04,24,16,29,16.20
2017,04,24,16,30,16.20
2017,04,24,16,31,16.20
2017,04,24,16,32,16.10
2017,04,24,16,33,16.10
2017,04,24,16,34,16.10
2017,04,24,16,35,16.00
2017,04,24,16,36,16.00
2017,04,24,16,37,15.90
2017,04,24,16,38,15.80
2017,04,24,16,39,15.80
2017,04,24,16,40,15.70
2017,04,24,16,41,15.70
2017,04,24,16,42,15.70
2017,04,24,16,43,15.80
2017,04,24,16,44,15.90
2017,04,24,16,45,16.00
2017,04,24,16,46,16.10
2017,04,24,16,47,16.10
2017,04,24,16,48,16.10
2017,04,24,16,49,16.10
2017,04,24,16,50,16.20
2017,04,24,16,51,16.30
2017,04,24,16,52,16.30
2017,04,24,16,53,16.30
2017,04,24,16,54,16.40
2017,04,24,16,55,16.40
2017,04,24,16,56,16.40
2017,04,24,16,57,16.40
2017,04,24,16,58,16.30
2017,04,24,16,59,16.30
2017,04,24,17,00,16.20
2017,04,24,17,01,16.20
2017,04,24,17,02,16.10
2017,04,24,17,03,16.00
2017,04,24,17,04,15.90
2017,04,24,17,05,15.80
2017,04,24,17,06,15.80
2017,04,24,17,07,15.80
2017,04,24,17,08,15.80
2017,04,24,17,09,15.80
2017,04,24,17,10,15.80
2017,04,24,17,11,15.80
2017,04,24,17,12,15.80
2017,04,24,17,13,15.80
2017,04,24,17,14,15.80
2017,04,24,17,15,15.90
2017,04,24,17,16,16.00
2017,04,24,17,17,16.00
2017,04,24,17,18,16.10
2017,04,24,17,19,16.10
2017,04,24,17,20,16.20
2017,04,24,17,21,16.20
2017,04,24,17,22,16.20
2017,04,24,17,23,16.10
2017,04,24,17,24,16.10
2017,04,24,17,25,16.10
2017,04,24,17,26,16.20
2017,04,24,17,27,16.20
2017,04,24,17,28,16.30
2017,04,24,17,29,16.40
2017,04,24,17,30,16.40
2017,04,24,17,31,16.30
2017,04,24,17,32,16.30
2017,04,24,17,33,16.20
2017,04,24,17,34,16.10
2017,04,24,17,35,16.00
2017,04,24,17,36,15.90
2017,04,24,17,37,15.80
2017,04,24,17,38,15.70
2017,04,24,17,39,15.70
2017,04,24,17,40,15.70
2017,04,24,17,41,15.70
2017,04,24,17,42,15.80
2017,04,24,17,43,15.80
2017,04,24,17,44,15.90
2017,04,24,17,45,15.90
2017,04,24,17,46,16.00
2017,04,24,17,47,16.10